owner,sensor,date,latitude,longitude,vertical_datum,sea_water_temperature,qcFlag 
ADCP,ioos:station:wmo:42363:1,2008-03-10T20:00:00Z,28.1600,-89.2200,9.99,20.8,11111222 
ADCP,ioos:station:wmo:42363:1,2008-03-10T21:15:00Z,28.1600,-89.2200,9.99,20.9,11111222 
ADCP,ioos:station:wmo:42363:1,2008-03-10T22:00:00Z,28.1600,-89.2200,9.99,21.0,11111222 
ADCP,ioos:station:wmo:42363:1,2008-03-10T23:00:00Z,28.1600,-89.2200,9.99,21.0,11111222 
ADCP,ioos:station:wmo:42363:1,2008-03-11T00:00:00Z,28.1600,-89.2200,9.99,21.0,11111222 
ADCP,ioos:station:wmo:42363:1,2008-03-11T02:00:00Z,28.1600,-89.2200,9.99,21.1,11111222 
ADCP,ioos:station:wmo:42363:1,2008-03-11T03:15:00Z,28.1600,-89.2200,9.99,21.1,11111222 
ADCP,ioos:station:wmo:42363:1,2008-03-11T04:00:00Z,28.1600,-89.2200,9.99,21.1,11111222 
ADCP,ioos:station:wmo:42363:1,2008-03-11T05:00:00Z,28.1600,-89.2200,9.99,21.0,11111222 
ADCP,ioos:station:wmo:42363:1,2008-03-11T06:00:00Z,28.1600,-89.2200,9.99,20.9,11111222 
ADCP,ioos:station:wmo:42363:1,2008-03-11T07:00:00Z,28.1600,-89.2200,9.99,20.8,11111222 
ADCP,ioos:station:wmo:42363:1,2008-03-11T08:30:00Z,28.1600,-89.2200,9.99,20.8,11111222 
ADCP,ioos:station:wmo:42363:1,2008-03-11T09:00:00Z,28.1600,-89.2200,9.99,20.8,11111222 
ADCP,ioos:station:wmo:42363:1,2008-03-11T10:00:00Z,28.1600,-89.2200,9.99,20.7,11111222 
ADCP,ioos:station:wmo:42363:1,2008-03-11T11:00:00Z,28.1600,-89.2200,9.99,20.7,11111222 
ADCP,ioos:station:wmo:42363:1,2008-03-11T12:00:00Z,28.1600,-89.2200,9.99,20.7,11111222 
ADCP,ioos:station:wmo:42363:1,2008-03-11T14:00:00Z,28.1600,-89.2200,9.99,20.7,11111222 
ADCP,ioos:station:wmo:42363:1,2008-03-11T15:15:00Z,28.1600,-89.2200,9.99,20.7,11111222 
ADCP,ioos:station:wmo:42363:1,2008-03-11T16:00:00Z,28.1600,-89.2200,9.99,20.7,11111222 
ADCP,ioos:station:wmo:42363:1,2008-03-11T17:00:00Z,28.1600,-89.2200,9.99,20.8,11111222 
ADCP,ioos:station:wmo:42363:1,2008-03-11T18:00:00Z,28.1600,-89.2200,9.99,20.8,11111222 
ADCP,ioos:station:wmo:42363:1,2008-03-19T17:30:00Z,28.1600,-89.2200,9.99,22.0,11111222 
ADCP,ioos:station:wmo:42363:1,2008-03-19T19:00:00Z,28.1600,-89.2200,9.99,21.9,11111222 
ADCP,ioos:station:wmo:42363:1,2008-03-19T20:00:00Z,28.1600,-89.2200,9.99,22.0,11111222 
ADCP,ioos:station:wmo:42363:1,2008-03-19T21:00:00Z,28.1600,-89.2200,9.99,22.0,11111222 
ADCP,ioos:station:wmo:42363:1,2008-03-19T22:30:00Z,28.1600,-89.2200,9.99,21.9,11111222 
ADCP,ioos:station:wmo:42363:1,2008-03-19T23:15:00Z,28.1600,-89.2200,9.99,21.8,11111222 
ADCP,ioos:station:wmo:42363:1,2008-03-20T00:30:00Z,28.1600,-89.2200,9.99,21.7,11111222 
ADCP,ioos:station:wmo:42363:1,2008-03-20T01:15:00Z,28.1600,-89.2200,9.99,21.6,11111222 
ADCP,ioos:station:wmo:42363:1,2008-03-20T02:15:00Z,28.1600,-89.2200,9.99,21.5,11111222 
ADCP,ioos:station:wmo:42363:1,2008-03-20T03:00:00Z,28.1600,-89.2200,9.99,21.5,11111222 
ADCP,ioos:station:wmo:42363:1,2008-03-20T04:00:00Z,28.1600,-89.2200,9.99,21.4,11111222 
ADCP,ioos:station:wmo:42363:1,2008-03-20T05:15:00Z,28.1600,-89.2200,9.99,21.4,11111222 
ADCP,ioos:station:wmo:42363:1,2008-03-20T06:30:00Z,28.1600,-89.2200,9.99,21.4,11111222 
ADCP,ioos:station:wmo:42363:1,2008-03-20T07:00:00Z,28.1600,-89.2200,9.99,21.4,11111222 
ADCP,ioos:station:wmo:42363:1,2008-03-20T10:15:00Z,28.1600,-89.2200,9.99,21.5,11111222 
ADCP,ioos:station:wmo:42363:1,2008-03-20T12:30:00Z,28.1600,-89.2200,9.99,21.5,11111222 
ADCP,ioos:station:wmo:42363:1,2008-03-20T14:30:00Z,28.1600,-89.2200,9.99,21.5,11111222 
ADCP,ioos:station:wmo:42363:1,2008-03-20T16:15:00Z,28.1600,-89.2200,9.99,21.5,11111222 
ADCP,ioos:station:wmo:42363:1,2008-03-20T17:00:00Z,28.1600,-89.2200,9.99,21.5,11111222 
ADCP,ioos:station:wmo:42363:1,2008-03-20T18:00:00Z,28.1600,-89.2200,9.99,21.5,11111222 
ADCP,ioos:station:wmo:42363:1,2008-03-20T21:30:00Z,28.1600,-89.2200,9.99,21.5,11111222 
ADCP,ioos:station:wmo:42363:1,2008-03-20T22:30:00Z,28.1600,-89.2200,9.99,21.5,11111222 
ADCP,ioos:station:wmo:42363:1,2008-03-20T23:30:00Z,28.1600,-89.2200,9.99,21.5,11111222 
ADCP,ioos:station:wmo:42363:1,2008-03-21T00:30:00Z,28.1600,-89.2200,9.99,21.5,11111222 
ADCP,ioos:station:wmo:42363:1,2008-03-21T02:15:00Z,28.1600,-89.2200,9.99,21.5,11111222 
ADCP,ioos:station:wmo:42363:1,2008-03-21T03:00:00Z,28.1600,-89.2200,9.99,21.5,11111222 
ADCP,ioos:station:wmo:42363:1,2008-03-21T04:00:00Z,28.1600,-89.2200,9.99,21.4,11111222 
ADCP,ioos:station:wmo:42363:1,2008-03-21T05:15:00Z,28.1600,-89.2200,9.99,21.4,11111222 
ADCP,ioos:station:wmo:42363:1,2008-03-21T06:30:00Z,28.1600,-89.2200,9.99,21.4,11111222 
ADCP,ioos:station:wmo:42363:1,2008-03-21T07:00:00Z,28.1600,-89.2200,9.99,21.4,11111222 
ADCP,ioos:station:wmo:42363:1,2008-03-21T08:00:00Z,28.1600,-89.2200,9.99,21.4,11111222 
ADCP,ioos:station:wmo:42363:1,2008-03-21T09:15:00Z,28.1600,-89.2200,9.99,21.4,11111222 
ADCP,ioos:station:wmo:42363:1,2008-03-21T10:00:00Z,28.1600,-89.2200,9.99,21.4,11111222 
ADCP,ioos:station:wmo:42363:1,2008-03-21T11:00:00Z,28.1600,-89.2200,9.99,21.4,11111222 
ADCP,ioos:station:wmo:42363:1,2008-03-21T12:30:00Z,28.1600,-89.2200,9.99,21.4,11111222 
ADCP,ioos:station:wmo:42363:1,2008-03-21T14:00:00Z,28.1600,-89.2200,9.99,21.3,11111222 
ADCP,ioos:station:wmo:42363:1,2008-03-21T15:30:00Z,28.1600,-89.2200,9.99,21.2,11111222 
ADCP,ioos:station:wmo:42363:1,2008-03-21T17:00:00Z,28.1600,-89.2200,9.99,21.2,11111222 
ADCP,ioos:station:wmo:42363:1,2008-03-21T18:00:00Z,28.1600,-89.2200,9.99,21.2,11111222 
ADCP,ioos:station:wmo:42363:1,2008-03-21T19:15:00Z,28.1600,-89.2200,9.99,21.3,11111222 
ADCP,ioos:station:wmo:42363:1,2008-03-21T20:00:00Z,28.1600,-89.2200,9.99,21.4,11111222 
ADCP,ioos:station:wmo:42363:1,2008-03-21T21:00:00Z,28.1600,-89.2200,9.99,21.4,11111222 
ADCP,ioos:station:wmo:42363:1,2008-03-21T22:15:00Z,28.1600,-89.2200,9.99,21.4,11111222 
ADCP,ioos:station:wmo:42363:1,2008-03-21T23:15:00Z,28.1600,-89.2200,9.99,21.4,11111222 
ADCP,ioos:station:wmo:42363:1,2008-03-22T00:15:00Z,28.1600,-89.2200,9.99,21.4,11111222 
ADCP,ioos:station:wmo:42363:1,2008-03-22T01:00:00Z,28.1600,-89.2200,9.99,21.5,11111222 
ADCP,ioos:station:wmo:42363:1,2008-03-22T02:30:00Z,28.1600,-89.2200,9.99,21.5,11111222 
ADCP,ioos:station:wmo:42363:1,2008-03-22T06:00:00Z,28.1600,-89.2200,9.99,21.5,11111222 
ADCP,ioos:station:wmo:42363:1,2008-03-22T08:00:00Z,28.1600,-89.2200,9.99,21.4,11111222 
ADCP,ioos:station:wmo:42363:1,2008-03-22T09:30:00Z,28.1600,-89.2200,9.99,21.4,11111222 
ADCP,ioos:station:wmo:42363:1,2008-03-22T10:15:00Z,28.1600,-89.2200,9.99,21.3,11111222 
ADCP,ioos:station:wmo:42363:1,2008-03-22T12:00:00Z,28.1600,-89.2200,9.99,21.2,11111222 
ADCP,ioos:station:wmo:42363:1,2008-03-22T13:30:00Z,28.1600,-89.2200,9.99,21.2,11111222 
ADCP,ioos:station:wmo:42363:1,2008-03-22T14:30:00Z,28.1600,-89.2200,9.99,21.1,11111222 
ADCP,ioos:station:wmo:42363:1,2008-03-22T15:00:00Z,28.1600,-89.2200,9.99,21.1,11111222 
ADCP,ioos:station:wmo:42363:1,2008-03-22T16:30:00Z,28.1600,-89.2200,9.99,21.2,11111222 
ADCP,ioos:station:wmo:42363:1,2008-03-22T19:30:00Z,28.1600,-89.2200,9.99,21.4,11111222 
ADCP,ioos:station:wmo:42363:1,2008-03-22T21:15:00Z,28.1600,-89.2200,9.99,21.5,11111222 
ADCP,ioos:station:wmo:42363:1,2008-03-22T22:00:00Z,28.1600,-89.2200,9.99,21.5,11111222 
ADCP,ioos:station:wmo:42363:1,2008-03-22T23:15:00Z,28.1600,-89.2200,9.99,21.5,11111222 
ADCP,ioos:station:wmo:42363:1,2008-03-23T00:00:00Z,28.1600,-89.2200,9.99,21.5,11111222 
ADCP,ioos:station:wmo:42363:1,2008-03-23T01:30:00Z,28.1600,-89.2200,9.99,21.5,11111222 
ADCP,ioos:station:wmo:42363:1,2008-03-23T03:00:00Z,28.1600,-89.2200,9.99,21.5,11111222 
ADCP,ioos:station:wmo:42363:1,2008-03-23T04:30:00Z,28.1600,-89.2200,9.99,21.6,11111222 
ADCP,ioos:station:wmo:42363:1,2008-03-23T05:15:00Z,28.1600,-89.2200,9.99,21.6,11111222 
ADCP,ioos:station:wmo:42363:1,2008-03-23T07:15:00Z,28.1600,-89.2200,9.99,21.5,11111222 
ADCP,ioos:station:wmo:42363:1,2008-03-23T09:15:00Z,28.1600,-89.2200,9.99,21.6,11111222 
ADCP,ioos:station:wmo:42363:1,2008-03-23T10:15:00Z,28.1600,-89.2200,9.99,21.6,11111222 
ADCP,ioos:station:wmo:42363:1,2008-03-23T11:30:00Z,28.1600,-89.2200,9.99,21.5,11111222 
ADCP,ioos:station:wmo:42363:1,2008-03-23T12:00:00Z,28.1600,-89.2200,9.99,21.5,11111222 
ADCP,ioos:station:wmo:42363:1,2008-03-23T13:00:00Z,28.1600,-89.2200,9.99,21.5,11111222 
ADCP,ioos:station:wmo:42363:1,2008-03-23T14:00:00Z,28.1600,-89.2200,9.99,21.5,11111222 
ADCP,ioos:station:wmo:42363:1,2008-03-23T15:30:00Z,28.1600,-89.2200,9.99,21.4,11111222 
ADCP,ioos:station:wmo:42363:1,2008-03-23T16:15:00Z,28.1600,-89.2200,9.99,21.3,11111222 
ADCP,ioos:station:wmo:42363:1,2008-03-23T17:00:00Z,28.1600,-89.2200,9.99,21.3,11111222 
ADCP,ioos:station:wmo:42363:1,2008-03-23T19:30:00Z,28.1600,-89.2200,9.99,21.3,11111222 
ADCP,ioos:station:wmo:42363:1,2008-03-23T20:15:00Z,28.1600,-89.2200,9.99,21.3,11111222 
ADCP,ioos:station:wmo:42363:1,2008-03-23T22:15:00Z,28.1600,-89.2200,9.99,21.3,11111222 
ADCP,ioos:station:wmo:42363:1,2008-03-23T23:00:00Z,28.1600,-89.2200,9.99,21.2,11111222 
ADCP,ioos:station:wmo:42363:1,2008-03-24T01:00:00Z,28.1600,-89.2200,9.99,21.2,11111222 
ADCP,ioos:station:wmo:42363:1,2008-03-24T03:15:00Z,28.1600,-89.2200,9.99,21.1,11111222 
ADCP,ioos:station:wmo:42363:1,2008-03-24T06:00:00Z,28.1600,-89.2200,9.99,21.0,11111222 
ADCP,ioos:station:wmo:42363:1,2008-03-24T07:15:00Z,28.1600,-89.2200,9.99,20.9,11111222 
ADCP,ioos:station:wmo:42363:1,2008-03-24T08:30:00Z,28.1600,-89.2200,9.99,20.8,11111222 
ADCP,ioos:station:wmo:42363:1,2008-03-24T10:30:00Z,28.1600,-89.2200,9.99,20.8,11111222 
ADCP,ioos:station:wmo:42363:1,2008-03-24T12:00:00Z,28.1600,-89.2200,9.99,20.8,11111222 
ADCP,ioos:station:wmo:42363:1,2008-03-24T14:30:00Z,28.1600,-89.2200,9.99,20.7,11111222 
ADCP,ioos:station:wmo:42363:1,2008-03-24T15:15:00Z,28.1600,-89.2200,9.99,20.7,11111222 
ADCP,ioos:station:wmo:42363:1,2008-03-24T16:30:00Z,28.1600,-89.2200,9.99,20.7,11111222 
ADCP,ioos:station:wmo:42363:1,2008-03-24T17:00:00Z,28.1600,-89.2200,9.99,20.7,11111222 
ADCP,ioos:station:wmo:42363:1,2008-03-24T18:30:00Z,28.1600,-89.2200,9.99,20.7,11111222 
ADCP,ioos:station:wmo:42363:1,2008-03-24T19:00:00Z,28.1600,-89.2200,9.99,20.8,11111222 
ADCP,ioos:station:wmo:42363:1,2008-03-24T20:30:00Z,28.1600,-89.2200,9.99,20.8,11111222 
ADCP,ioos:station:wmo:42363:1,2008-03-24T21:00:00Z,28.1600,-89.2200,9.99,20.8,11111222 
ADCP,ioos:station:wmo:42363:1,2008-03-24T23:00:00Z,28.1600,-89.2200,9.99,20.8,11111222 
ADCP,ioos:station:wmo:42363:1,2008-03-25T00:15:00Z,28.1600,-89.2200,9.99,20.8,11111222 
ADCP,ioos:station:wmo:42363:1,2008-03-25T01:00:00Z,28.1600,-89.2200,9.99,20.8,11111222 
ADCP,ioos:station:wmo:42363:1,2008-03-25T04:15:00Z,28.1600,-89.2200,9.99,20.6,11111222 
ADCP,ioos:station:wmo:42363:1,2008-03-25T05:00:00Z,28.1600,-89.2200,9.99,20.6,11111222 
ADCP,ioos:station:wmo:42363:1,2008-03-25T06:00:00Z,28.1600,-89.2200,9.99,20.6,11111222 
ADCP,ioos:station:wmo:42363:1,2008-03-25T07:15:00Z,28.1600,-89.2200,9.99,20.6,11111222 
ADCP,ioos:station:wmo:42363:1,2008-03-25T08:30:00Z,28.1600,-89.2200,9.99,20.6,11111222 
ADCP,ioos:station:wmo:42363:1,2008-03-25T09:30:00Z,28.1600,-89.2200,9.99,20.6,11111222 
ADCP,ioos:station:wmo:42363:1,2008-03-25T11:15:00Z,28.1600,-89.2200,9.99,20.6,11111222 
ADCP,ioos:station:wmo:42363:1,2008-03-25T12:00:00Z,28.1600,-89.2200,9.99,20.6,11111222 
ADCP,ioos:station:wmo:42363:1,2008-03-25T13:30:00Z,28.1600,-89.2200,9.99,20.6,11111222 
ADCP,ioos:station:wmo:42363:1,2008-03-25T14:00:00Z,28.1600,-89.2200,9.99,20.6,11111222 
ADCP,ioos:station:wmo:42363:1,2008-03-25T15:30:00Z,28.1600,-89.2200,9.99,20.6,11111222 
ADCP,ioos:station:wmo:42363:1,2008-03-25T16:00:00Z,28.1600,-89.2200,9.99,20.6,11111222 
ADCP,ioos:station:wmo:42363:1,2008-03-25T17:00:00Z,28.1600,-89.2200,9.99,20.6,11111222 
ADCP,ioos:station:wmo:42363:1,2008-03-25T18:00:00Z,28.1600,-89.2200,9.99,20.6,11111222 
ADCP,ioos:station:wmo:42363:1,2008-03-25T20:00:00Z,28.1600,-89.2200,9.99,20.7,11111222 
ADCP,ioos:station:wmo:42363:1,2008-03-25T22:15:00Z,28.1600,-89.2200,9.99,20.7,11111222 
ADCP,ioos:station:wmo:42363:1,2008-03-25T23:15:00Z,28.1600,-89.2200,9.99,20.7,11111222 
ADCP,ioos:station:wmo:42363:1,2008-03-26T00:00:00Z,28.1600,-89.2200,9.99,20.8,11111222 
ADCP,ioos:station:wmo:42363:1,2008-03-26T01:30:00Z,28.1600,-89.2200,9.99,20.8,11111222 
ADCP,ioos:station:wmo:42363:1,2008-03-26T02:00:00Z,28.1600,-89.2200,9.99,20.8,11111222 
ADCP,ioos:station:wmo:42363:1,2008-03-26T03:15:00Z,28.1600,-89.2200,9.99,20.9,11111222 
ADCP,ioos:station:wmo:42363:1,2008-03-26T07:00:00Z,28.1600,-89.2200,9.99,20.8,11111222 
ADCP,ioos:station:wmo:42363:1,2008-03-26T08:15:00Z,28.1600,-89.2200,9.99,20.8,11111222 
ADCP,ioos:station:wmo:42363:1,2008-03-26T09:15:00Z,28.1600,-89.2200,9.99,20.7,11111222 
ADCP,ioos:station:wmo:42363:1,2008-03-26T11:15:00Z,28.1600,-89.2200,9.99,20.6,11111222 
ADCP,ioos:station:wmo:42363:1,2008-03-26T12:15:00Z,28.1600,-89.2200,9.99,20.5,11111222 
ADCP,ioos:station:wmo:42363:1,2008-03-26T13:30:00Z,28.1600,-89.2200,9.99,20.5,11111222 
ADCP,ioos:station:wmo:42363:1,2008-03-26T14:00:00Z,28.1600,-89.2200,9.99,20.5,11111222 
ADCP,ioos:station:wmo:42363:1,2008-03-26T15:15:00Z,28.1600,-89.2200,9.99,20.4,11111222 
ADCP,ioos:station:wmo:42363:1,2008-03-26T17:00:00Z,28.1600,-89.2200,9.99,20.3,11111222 
ADCP,ioos:station:wmo:42363:1,2008-03-26T18:00:00Z,28.1600,-89.2200,9.99,20.3,11111222 
ADCP,ioos:station:wmo:42363:1,2008-03-26T19:00:00Z,28.1600,-89.2200,9.99,20.3,11111222 
ADCP,ioos:station:wmo:42363:1,2008-03-26T20:00:00Z,28.1600,-89.2200,9.99,20.4,11111222 
ADCP,ioos:station:wmo:42363:1,2008-03-26T21:00:00Z,28.1600,-89.2200,9.99,20.4,11111222 
ADCP,ioos:station:wmo:42363:1,2008-03-26T22:00:00Z,28.1600,-89.2200,9.99,20.5,11111222 
ADCP,ioos:station:wmo:42363:1,2008-03-26T23:00:00Z,28.1600,-89.2200,9.99,20.4,11111222 
ADCP,ioos:station:wmo:42363:1,2008-03-27T00:00:00Z,28.1600,-89.2200,9.99,20.5,11111222 
ADCP,ioos:station:wmo:42363:1,2008-03-27T01:00:00Z,28.1600,-89.2200,9.99,20.5,11111222 
ADCP,ioos:station:wmo:42363:1,2008-03-27T02:00:00Z,28.1600,-89.2200,9.99,20.5,11111222 
ADCP,ioos:station:wmo:42363:1,2008-03-27T03:00:00Z,28.1600,-89.2200,9.99,20.5,11111222 
ADCP,ioos:station:wmo:42363:1,2008-03-27T04:00:00Z,28.1600,-89.2200,9.99,20.5,11111222 
ADCP,ioos:station:wmo:42363:1,2008-03-27T05:00:00Z,28.1600,-89.2200,9.99,20.5,11111222 
ADCP,ioos:station:wmo:42363:1,2008-03-27T06:00:00Z,28.1600,-89.2200,9.99,20.5,11111222 
ADCP,ioos:station:wmo:42363:1,2008-03-27T07:00:00Z,28.1600,-89.2200,9.99,20.5,11111222 
ADCP,ioos:station:wmo:42363:1,2008-03-27T08:00:00Z,28.1600,-89.2200,9.99,20.6,11111222 
ADCP,ioos:station:wmo:42363:1,2008-03-27T09:00:00Z,28.1600,-89.2200,9.99,20.6,11111222 
ADCP,ioos:station:wmo:42363:1,2008-03-27T10:00:00Z,28.1600,-89.2200,9.99,20.6,11111222 
ADCP,ioos:station:wmo:42363:1,2008-03-27T11:00:00Z,28.1600,-89.2200,9.99,20.6,11111222 
ADCP,ioos:station:wmo:42363:1,2008-03-27T12:00:00Z,28.1600,-89.2200,9.99,20.6,11111222 
ADCP,ioos:station:wmo:42363:1,2008-03-27T13:00:00Z,28.1600,-89.2200,9.99,20.6,11111222 
ADCP,ioos:station:wmo:42363:1,2008-03-27T14:00:00Z,28.1600,-89.2200,9.99,20.6,11111222 
ADCP,ioos:station:wmo:42363:1,2008-03-27T15:00:00Z,28.1600,-89.2200,9.99,20.6,11111222 
ADCP,ioos:station:wmo:42363:1,2008-03-27T16:00:00Z,28.1600,-89.2200,9.99,20.6,11111222 
ADCP,ioos:station:wmo:42363:1,2008-03-27T17:00:00Z,28.1600,-89.2200,9.99,20.6,11111222 
ADCP,ioos:station:wmo:42363:1,2008-03-27T18:00:00Z,28.1600,-89.2200,9.99,20.6,11111222 
ADCP,ioos:station:wmo:42363:1,2008-03-27T19:00:00Z,28.1600,-89.2200,9.99,20.6,11111222 
ADCP,ioos:station:wmo:42363:1,2008-03-27T20:00:00Z,28.1600,-89.2200,9.99,20.7,11111222 
ADCP,ioos:station:wmo:42363:1,2008-03-27T21:00:00Z,28.1600,-89.2200,9.99,20.7,11111222 
ADCP,ioos:station:wmo:42363:1,2008-03-27T22:00:00Z,28.1600,-89.2200,9.99,20.7,11111222 
ADCP,ioos:station:wmo:42363:1,2008-03-27T23:00:00Z,28.1600,-89.2200,9.99,20.7,11111222 
ADCP,ioos:station:wmo:42363:1,2008-03-28T00:00:00Z,28.1600,-89.2200,9.99,20.7,11111222 
ADCP,ioos:station:wmo:42363:1,2008-03-28T01:00:00Z,28.1600,-89.2200,9.99,20.7,11111222 
ADCP,ioos:station:wmo:42363:1,2008-03-28T02:00:00Z,28.1600,-89.2200,9.99,20.7,11111222 
ADCP,ioos:station:wmo:42363:1,2008-03-28T03:00:00Z,28.1600,-89.2200,9.99,20.7,11111222 
ADCP,ioos:station:wmo:42363:1,2008-03-28T04:00:00Z,28.1600,-89.2200,9.99,20.7,11111222 
ADCP,ioos:station:wmo:42363:1,2008-03-28T05:00:00Z,28.1600,-89.2200,9.99,20.6,11111222 
ADCP,ioos:station:wmo:42363:1,2008-03-28T06:00:00Z,28.1600,-89.2200,9.99,20.6,11111222 
ADCP,ioos:station:wmo:42363:1,2008-03-28T07:00:00Z,28.1600,-89.2200,9.99,20.5,11111222 
ADCP,ioos:station:wmo:42363:1,2008-03-28T08:00:00Z,28.1600,-89.2200,9.99,20.5,11111222 
ADCP,ioos:station:wmo:42363:1,2008-03-28T09:00:00Z,28.1600,-89.2200,9.99,20.5,11111222 
ADCP,ioos:station:wmo:42363:1,2008-03-28T10:00:00Z,28.1600,-89.2200,9.99,20.4,11111222 
ADCP,ioos:station:wmo:42363:1,2008-03-28T11:00:00Z,28.1600,-89.2200,9.99,20.4,11111222 
ADCP,ioos:station:wmo:42363:1,2008-03-28T12:00:00Z,28.1600,-89.2200,9.99,20.4,11111222 
ADCP,ioos:station:wmo:42363:1,2008-03-28T13:00:00Z,28.1600,-89.2200,9.99,20.3,11111222 
ADCP,ioos:station:wmo:42363:1,2008-03-28T14:00:00Z,28.1600,-89.2200,9.99,20.3,11111222 
ADCP,ioos:station:wmo:42363:1,2008-03-28T15:00:00Z,28.1600,-89.2200,9.99,20.2,11111222 
ADCP,ioos:station:wmo:42363:1,2008-03-28T16:00:00Z,28.1600,-89.2200,9.99,20.2,11111222 
ADCP,ioos:station:wmo:42363:1,2008-03-28T17:00:00Z,28.1600,-89.2200,9.99,20.2,11111222 
ADCP,ioos:station:wmo:42363:1,2008-03-28T18:00:00Z,28.1600,-89.2200,9.99,20.2,11111222 
ADCP,ioos:station:wmo:42363:1,2008-03-28T19:00:00Z,28.1600,-89.2200,9.99,20.2,11111222 
ADCP,ioos:station:wmo:42363:1,2008-03-28T20:00:00Z,28.1600,-89.2200,9.99,20.1,11111222 
ADCP,ioos:station:wmo:42363:1,2008-03-28T21:00:00Z,28.1600,-89.2200,9.99,20.0,11111222 
ADCP,ioos:station:wmo:42363:1,2008-03-28T22:00:00Z,28.1600,-89.2200,9.99,19.9,11111222 
ADCP,ioos:station:wmo:42363:1,2008-03-28T23:00:00Z,28.1600,-89.2200,9.99,20.0,11111222 
ADCP,ioos:station:wmo:42363:1,2008-03-29T00:00:00Z,28.1600,-89.2200,9.99,20.1,11111222 
ADCP,ioos:station:wmo:42363:1,2008-03-29T01:00:00Z,28.1600,-89.2200,9.99,20.2,11111222 
ADCP,ioos:station:wmo:42363:1,2008-03-29T02:00:00Z,28.1600,-89.2200,9.99,20.2,11111222 
ADCP,ioos:station:wmo:42363:1,2008-03-29T03:00:00Z,28.1600,-89.2200,9.99,20.3,11111222 
ADCP,ioos:station:wmo:42363:1,2008-03-29T04:00:00Z,28.1600,-89.2200,9.99,20.4,11111222 
ADCP,ioos:station:wmo:42363:1,2008-03-29T05:00:00Z,28.1600,-89.2200,9.99,20.4,11111222 
ADCP,ioos:station:wmo:42363:1,2008-03-29T06:00:00Z,28.1600,-89.2200,9.99,20.2,11111222 
ADCP,ioos:station:wmo:42363:1,2008-03-29T07:00:00Z,28.1600,-89.2200,9.99,20.2,11111222 
ADCP,ioos:station:wmo:42363:1,2008-03-29T08:00:00Z,28.1600,-89.2200,9.99,20.2,11111222 
ADCP,ioos:station:wmo:42363:1,2008-03-29T09:00:00Z,28.1600,-89.2200,9.99,20.2,11111222 
ADCP,ioos:station:wmo:42363:1,2008-03-29T10:00:00Z,28.1600,-89.2200,9.99,20.2,11111222 
ADCP,ioos:station:wmo:42363:1,2008-03-29T11:00:00Z,28.1600,-89.2200,9.99,20.2,11111222 
ADCP,ioos:station:wmo:42363:1,2008-03-29T12:00:00Z,28.1600,-89.2200,9.99,20.3,11111222 
ADCP,ioos:station:wmo:42363:1,2008-03-29T13:00:00Z,28.1600,-89.2200,9.99,20.2,11111222 
ADCP,ioos:station:wmo:42363:1,2008-03-29T14:00:00Z,28.1600,-89.2200,9.99,20.2,11111222 
ADCP,ioos:station:wmo:42363:1,2008-03-29T15:00:00Z,28.1600,-89.2200,9.99,20.2,11111222 
ADCP,ioos:station:wmo:42363:1,2008-03-29T16:00:00Z,28.1600,-89.2200,9.99,20.1,11111222 
ADCP,ioos:station:wmo:42363:1,2008-03-29T17:00:00Z,28.1600,-89.2200,9.99,20.0,11111222 
ADCP,ioos:station:wmo:42363:1,2008-03-29T18:00:00Z,28.1600,-89.2200,9.99,20.1,11111222 
ADCP,ioos:station:wmo:42363:1,2008-03-29T19:00:00Z,28.1600,-89.2200,9.99,20.2,11111222 
ADCP,ioos:station:wmo:42363:1,2008-03-29T20:00:00Z,28.1600,-89.2200,9.99,20.1,11111222 
ADCP,ioos:station:wmo:42363:1,2008-03-29T21:00:00Z,28.1600,-89.2200,9.99,20.1,11111222 
ADCP,ioos:station:wmo:42363:1,2008-03-29T22:00:00Z,28.1600,-89.2200,9.99,20.0,11111222 
ADCP,ioos:station:wmo:42363:1,2008-03-29T23:00:00Z,28.1600,-89.2200,9.99,20.1,11111222 
ADCP,ioos:station:wmo:42363:1,2008-03-30T00:00:00Z,28.1600,-89.2200,9.99,20.0,11111222 
ADCP,ioos:station:wmo:42363:1,2008-03-30T01:00:00Z,28.1600,-89.2200,9.99,19.8,11111222 
ADCP,ioos:station:wmo:42363:1,2008-03-30T02:00:00Z,28.1600,-89.2200,9.99,19.7,11111222 
ADCP,ioos:station:wmo:42363:1,2008-03-30T03:00:00Z,28.1600,-89.2200,9.99,19.6,11111222 
ADCP,ioos:station:wmo:42363:1,2008-03-30T04:00:00Z,28.1600,-89.2200,9.99,19.2,11111222 
ADCP,ioos:station:wmo:42363:1,2008-03-30T05:00:00Z,28.1600,-89.2200,9.99,19.0,11111222 
ADCP,ioos:station:wmo:42363:1,2008-03-30T06:00:00Z,28.1600,-89.2200,9.99,19.1,11111222 
ADCP,ioos:station:wmo:42363:1,2008-03-30T07:00:00Z,28.1600,-89.2200,9.99,19.0,11111222 
ADCP,ioos:station:wmo:42363:1,2008-03-30T08:00:00Z,28.1600,-89.2200,9.99,18.9,11111222 
ADCP,ioos:station:wmo:42363:1,2008-03-30T09:00:00Z,28.1600,-89.2200,9.99,19.0,11111222 
ADCP,ioos:station:wmo:42363:1,2008-03-30T10:00:00Z,28.1600,-89.2200,9.99,18.8,11111222 
ADCP,ioos:station:wmo:42363:1,2008-03-30T11:00:00Z,28.1600,-89.2200,9.99,18.8,11111222 
ADCP,ioos:station:wmo:42363:1,2008-03-30T12:00:00Z,28.1600,-89.2200,9.99,18.9,11111222 
ADCP,ioos:station:wmo:42363:1,2008-03-30T13:00:00Z,28.1600,-89.2200,9.99,19.0,11111222 
ADCP,ioos:station:wmo:42363:1,2008-03-30T14:00:00Z,28.1600,-89.2200,9.99,18.9,11111222 
ADCP,ioos:station:wmo:42363:1,2008-03-30T15:00:00Z,28.1600,-89.2200,9.99,19.0,11111222 
ADCP,ioos:station:wmo:42363:1,2008-03-30T16:00:00Z,28.1600,-89.2200,9.99,19.0,11111222 
ADCP,ioos:station:wmo:42363:1,2008-03-30T17:00:00Z,28.1600,-89.2200,9.99,18.9,11111222 
ADCP,ioos:station:wmo:42363:1,2008-03-30T18:00:00Z,28.1600,-89.2200,9.99,18.9,11111222 
ADCP,ioos:station:wmo:42363:1,2008-03-30T19:00:00Z,28.1600,-89.2200,9.99,19.0,11111222 
ADCP,ioos:station:wmo:42363:1,2008-03-30T20:00:00Z,28.1600,-89.2200,9.99,19.0,11111222 
ADCP,ioos:station:wmo:42363:1,2008-03-30T21:00:00Z,28.1600,-89.2200,9.99,19.0,11111222 
ADCP,ioos:station:wmo:42363:1,2008-03-30T22:00:00Z,28.1600,-89.2200,9.99,19.0,11111222 
ADCP,ioos:station:wmo:42363:1,2008-03-30T23:00:00Z,28.1600,-89.2200,9.99,19.0,11111222 
ADCP,ioos:station:wmo:42363:1,2008-03-31T00:00:00Z,28.1600,-89.2200,9.99,19.2,11111222 
ADCP,ioos:station:wmo:42363:1,2008-03-31T01:00:00Z,28.1600,-89.2200,9.99,19.2,11111222 
ADCP,ioos:station:wmo:42363:1,2008-03-31T02:00:00Z,28.1600,-89.2200,9.99,19.5,11111222 
ADCP,ioos:station:wmo:42363:1,2008-03-31T03:00:00Z,28.1600,-89.2200,9.99,19.5,11111222 
ADCP,ioos:station:wmo:42363:1,2008-03-31T04:00:00Z,28.1600,-89.2200,9.99,19.3,11111222 
ADCP,ioos:station:wmo:42363:1,2008-03-31T05:00:00Z,28.1600,-89.2200,9.99,19.4,11111222 
ADCP,ioos:station:wmo:42363:1,2008-03-31T06:00:00Z,28.1600,-89.2200,9.99,19.6,11111222 
ADCP,ioos:station:wmo:42363:1,2008-03-31T07:00:00Z,28.1600,-89.2200,9.99,19.5,11111222 
ADCP,ioos:station:wmo:42363:1,2008-03-31T08:00:00Z,28.1600,-89.2200,9.99,19.5,11111222 
ADCP,ioos:station:wmo:42363:1,2008-03-31T09:00:00Z,28.1600,-89.2200,9.99,19.3,11111222 
ADCP,ioos:station:wmo:42363:1,2008-03-31T10:00:00Z,28.1600,-89.2200,9.99,19.5,11111222 
ADCP,ioos:station:wmo:42363:1,2008-03-31T11:00:00Z,28.1600,-89.2200,9.99,19.3,11111222 
ADCP,ioos:station:wmo:42363:1,2008-03-31T12:00:00Z,28.1600,-89.2200,9.99,19.6,11111222 
ADCP,ioos:station:wmo:42363:1,2008-03-31T13:00:00Z,28.1600,-89.2200,9.99,19.6,11111222 
ADCP,ioos:station:wmo:42363:1,2008-03-31T14:00:00Z,28.1600,-89.2200,9.99,19.8,11111222 
ADCP,ioos:station:wmo:42363:1,2008-03-31T15:00:00Z,28.1600,-89.2200,9.99,19.7,11111222 
ADCP,ioos:station:wmo:42363:1,2008-03-31T16:00:00Z,28.1600,-89.2200,9.99,19.8,11111222 
ADCP,ioos:station:wmo:42363:1,2008-03-31T17:00:00Z,28.1600,-89.2200,9.99,19.6,11111222 
ADCP,ioos:station:wmo:42363:1,2008-03-31T18:00:00Z,28.1600,-89.2200,9.99,19.5,11111222 
ADCP,ioos:station:wmo:42363:1,2008-03-31T19:00:00Z,28.1600,-89.2200,9.99,19.7,11111222 
ADCP,ioos:station:wmo:42363:1,2008-03-31T20:00:00Z,28.1600,-89.2200,9.99,19.8,11111222 